Location: Ernez
(36.4595°N, 29.8755°E)
Time: 09:45:39
(UTC+00:00)

Geosat - Pass Details

Date: 13 November 2025
Orbit: 758 x 760 km, 108.0° (Epoch: 05 December)

Event Time Altitude Azimuth Distance (km) Brightness Sun altitude
Exits shadow 17:18:32 66° 265° (W) 825 4.2 -29.3°
Drops below altitude 10° 17:23:16 10° 330° (NNW) 2,294 6.8 -30.2°
Sets 17:25:35 0° 333° (NNW) 3,224 7.6 -30.7°
